DW0275 Weather Reports


time (UTC)temp
C
wind
direction
speed
KPH
gust
KPH
rain 1hr
cm
rain 24hr
cm
rain mn
cm
humidity
%
barometer
mb
20260508004344 27 152 3.2 8.0 0.00 0.00 0.00 72 1015.2
20260508003857 28 148 3.2 8.0 0.00 0.00 0.00 72 1015.2
20260508003329 28 139 3.2 8.0 0.00 0.00 0.00 71 1015.3
20260508002842 28 131 4.8 8.0 0.00 0.00 0.00 72 1015.2
20260508002324 28 155 1.6 9.7 0.00 0.00 0.00 72 1015.1
20260508001829 28 124 4.8 8.0 0.00 0.00 0.00 71 1015.0
20260508001320 28 123 4.8 8.0 0.00 0.00 0.00 71 1015.0
20260508000850 28 139 1.6 6.4 0.00 0.00 0.00 71 1015.0
20260508000322 28 134 3.2 12.9 0.00 0.00 0.00 70 1015.0
20260507235831 28 150 4.8 12.9 0.00 0.00 0.00 70 1014.8
20260507235324 28 127 8.0 12.9 0.00 0.00 0.00 70 1014.8
20260507234839 28 133 8.0 11.3 0.00 0.00 0.00 69 1014.7
20260507234345 28 129 4.8 11.3 0.00 0.00 0.00 70 1014.7
20260507233839 28 136 3.2 11.3 0.00 0.00 0.00 68 1014.6
20260507233328 28 119 3.2 9.7 0.00 0.00 0.00 69 1014.5
20260507232822 28 98 4.8 12.9 0.00 0.00 0.00 69 1014.3
20260507232345 28 126 8.0 14.5 0.00 0.00 0.00 69 1014.4
20260507231828 28 146 8.0 16.1 0.00 0.00 0.00 69 1014.2
20260507231343 29 138 11.3 16.1 0.00 0.00 0.00 68 1014.2
20260507230832 29 127 4.8 14.5 0.00 0.00 0.00 70 1014.2
20260507230335 29 135 9.7 14.5 0.00 0.00 0.00 69 1014.2
20260507225826 30 124 11.3 14.5 0.00 0.00 0.00 69 1014.2
20260507225347 30 140 6.4 12.9 0.00 0.00 0.00 68 1014.2
20260507224837 30 161 6.4 17.7 0.00 0.00 0.00 69 1014.2
20260507224320 30 105 8.0 14.5 0.00 0.00 0.00 68 1014.1
20260507223829 30 122 8.0 16.1 0.00 0.00 0.00 68 1014.1
20260507223321 30 163 9.7 16.1 0.00 0.00 0.00 67 1014.1
20260507222843 30 123 9.7 14.5 0.00 0.00 0.00 67 1014.0
20260507222336 30 96 6.4 14.5 0.00 0.00 0.00 66 1014.0
20260507221902 30 116 9.7 16.1 0.00 0.00 0.00 66 1014.0
20260507221322 30 146 8.0 16.1 0.00 0.00 0.00 66 1014.0
20260507220824 30 133 8.0 17.7 0.00 0.00 0.00 67 1014.0
20260507220347 30 138 8.0 17.7 0.00 0.00 0.00 66 1014.0
20260507215841 30 109 9.7 14.5 0.00 0.00 0.00 66 1014.1
20260507215335 31 120 6.4 14.5 0.00 0.00 0.00 65 1014.1
20260507214827 31 58 6.4 12.9 0.00 0.00 0.00 66 1014.1
20260507214342 31 160 4.8 16.1 0.00 0.00 0.00 66 1014.1
20260507213834 31 138 8.0 16.1 0.00 0.00 0.00 66 1013.9
20260507213328 31 134 6.4 16.1 0.00 0.00 0.00 66 1013.9
20260507212820 31 137 11.3 17.7 0.00 0.00 0.00 66 1013.9
20260507212330 31 133 8.0 17.7 0.00 0.00 0.00 67 1014.1
20260507211821 31 127 8.0 14.5 0.00 0.00 0.00 67 1014.0
20260507211335 31 131 8.0 16.1 0.00 0.00 0.00 67 1014.0
20260507210828 31 123 9.7 16.1 0.00 0.00 0.00 68 1014.0
20260507210342 31 121 11.3 16.1 0.00 0.00 0.00 68 1014.0
20260507205853 31 117 9.7 16.1 0.00 0.00 0.00 68 1013.9
20260507205322 31 150 11.3 19.3 0.00 0.00 0.00 68 1014.0
20260507204845 31 120 9.7 19.3 0.00 0.00 0.00 69 1014.0
20260507204342 31 136 8.0 12.9 0.00 0.00 0.00 67 1013.9
20260507203825 31 139 6.4 14.5 0.00 0.00 0.00 66 1014.0
20260507203334 32 141 8.0 16.1 0.00 0.00 0.00 67 1013.9
20260507202825 32 121 9.7 14.5 0.00 0.00 0.00 67 1014.0
20260507202324 32 148 8.0 12.9 0.00 0.00 0.00 67 1014.1
20260507201835 32 134 4.8 9.7 0.00 0.00 0.00 66 1014.1
20260507201347 32 125 3.2 9.7 0.00 0.00 0.00 65 1014.1
20260507200830 32 125 4.8 9.7 0.00 0.00 0.00 66 1014.2
20260507200322 32 45 4.8 9.7 0.00 0.00 0.00 63 1014.3
20260507195843 33 4 3.2 6.4 0.00 0.00 0.00 62 1014.4
20260507195337 33 122 3.2 6.4 0.00 0.00 0.00 55 1014.5
20260507194904 34 108 0.0 0.0 0.00 0.00 0.00 54 1014.6
20260507194352 33 120 0.0 4.8 0.00 0.00 0.00 56 1014.6
20260507193824 33 142 0.0 4.8 0.00 0.00 0.00 54 1014.7
20260507193338 33 109 0.0 6.4 0.00 0.00 0.00 56 1014.9
20260507192904 33 55 0.0 6.4 0.00 0.00 0.00 56 1014.8
20260507192337 34 98 0.0 3.2 0.00 0.00 0.00 55 1014.9
20260507191821 33 272 0.0 9.7 0.00 0.00 0.00 56 1015.1
20260507191328 33 23 0.0 9.7 0.00 0.00 0.00 56 1015.1
20260507190820 34 181 4.8 8.0 0.00 0.00 0.00 50 1015.3
20260507190320 34 323 0.0 8.0 0.00 0.00 0.00 53 1015.3
20260507185830 34 139 3.2 8.0 0.00 0.00 0.00 52 1015.4
20260507185324 33 319 1.6 8.0 0.00 0.00 0.00 49 1015.5
20260507184834 34 139 1.6 8.0 0.00 0.00 0.00 50 1015.6
20260507184327 34 295 1.6 4.8 0.00 0.00 0.00 54 1015.6
20260507183819 33 118 0.0 6.4 0.00 0.00 0.00 59 1015.8
20260507183319 33 138 3.2 8.0 0.00 0.00 0.00 56 1015.8
20260507182833 33 179 1.6 4.8 0.00 0.00 0.00 57 1015.8
20260507182327 33 31 1.6 4.8 0.00 0.00 0.00 58 1015.8
20260507181828 33 133 0.0 6.4 0.00 0.00 0.00 58 1015.8
20260507181343 33 127 1.6 8.0 0.00 0.00 0.00 57 1016.0
20260507180844 33 150 3.2 6.4 0.00 0.00 0.00 58 1016.1
20260507180334 33 318 0.0 6.4 0.00 0.00 0.00 62 1016.3
20260507175819 33 253 1.6 6.4 0.00 0.00 0.00 61 1016.3
20260507175328 32 325 0.0 3.2 0.00 0.00 0.00 62 1016.3
20260507174842 32 319 0.0 8.0 0.00 0.00 0.00 61 1016.4
20260507174334 32 133 3.2 8.0 0.00 0.00 0.00 58 1016.3
20260507173840 33 138 0.0 11.3 0.00 0.00 0.00 61 1016.4
20260507173321 33 162 3.2 11.3 0.00 0.00 0.00 57 1016.5
20260507172829 33 133 0.0 6.4 0.00 0.00 0.00 65 1016.5
20260507172342 32 117 0.0 6.4 0.00 0.00 0.00 60 1016.5
20260507171827 32 273 0.0 8.0 0.00 0.00 0.00 63 1016.6
20260507171321 32 126 4.8 8.0 0.00 0.00 0.00 61 1016.6
20260507170830 32 46 0.0 4.8 0.00 0.00 0.00 60 1016.6
20260507170324 32 298 1.6 6.4 0.00 0.00 0.00 60 1016.8
20260507165825 32 124 1.6 6.4 0.00 0.00 0.00 59 1016.7
20260507165328 32 121 1.6 4.8 0.00 0.00 0.00 61 1016.8
20260507164841 32 294 0.0 8.0 0.00 0.00 0.00 59 1016.9
20260507164354 32 156 4.8 8.0 0.00 0.00 0.00 58 1016.9
20260507163842 32 66 0.0 6.4 0.00 0.00 0.00 60 1017.0
20260507163341 32 153 1.6 8.0 0.00 0.00 0.00 59 1017.1
20260507162839 32 243 3.2 8.0 0.00 0.00 0.00 59 1017.1
20260507162334 32 155 0.0 8.0 0.00 0.00 0.00 63 1017.1
20260507161835 32 119 3.2 8.0 0.00 0.00 0.00 60 1017.2
20260507161328 32 301 1.6 4.8 0.00 0.00 0.00 61 1017.2
20260507160820 32 148 1.6 4.8 0.00 0.00 0.00 65 1017.2
20260507160332 32 212 1.6 4.8 0.00 0.00 0.00 65 1017.3
20260507155843 32 253 0.0 4.8 0.00 0.00 0.00 62 1017.3
20260507155331 32 288 0.0 3.2 0.00 0.00 0.00 66 1017.4
20260507154844 32 291 0.0 4.8 0.00 0.00 0.00 65 1017.3
20260507154322 32 300 0.0 3.2 0.00 0.00 0.00 64 1017.5
20260507153841 32 292 1.6 3.2 0.00 0.00 0.00 67 1017.5
20260507153335 32 113 0.0 4.8 0.00 0.00 0.00 68 1017.5
20260507152834 31 174 0.0 4.8 0.00 0.00 0.00 69 1017.5
20260507152408 31 52 0.0 4.8 0.00 0.00 0.00 70 1017.6
20260507151848 31 309 3.2 6.4 0.00 0.00 0.00 69 1017.5
20260507151322 31 316 1.6 6.4 0.00 0.00 0.00 69 1017.5
20260507150859 31 129 1.6 3.2 0.00 0.00 0.00 68 1017.6
20260507150336 31 81 0.0 4.8 0.00 0.00 0.00 70 1017.6
20260507145848 31 129 1.6 4.8 0.00 0.00 0.00 69 1017.6
20260507145341 31 285 1.6 4.8 0.00 0.00 0.00 69 1017.7
20260507144833 31 22 0.0 6.4 0.00 0.00 0.00 72 1017.6
20260507144343 31 127 1.6 6.4 0.00 0.00 0.00 71 1017.6
20260507143851 31 101 0.0 4.8 0.00 0.00 0.00 73 1017.5
20260507143349 30 359 1.6 6.4 0.00 0.00 0.00 72 1017.5
20260507142839 30 155 1.6 4.8 0.00 0.00 0.00 74 1017.6
20260507142332 30 292 1.6 3.2 0.00 0.00 0.00 73 1017.5
20260507141832 30 120 0.0 3.2 0.00 0.00 0.00 74 1017.5
20260507141339 30 313 0.0 6.4 0.00 0.00 0.00 74 1017.6
20260507140849 30 143 1.6 6.4 0.00 0.00 0.00 73 1017.6
20260507140332 30 197 1.6 6.4 0.00 0.00 0.00 74 1017.6
20260507135846 30 140 3.2 6.4 0.00 0.00 0.00 74 1017.6
20260507135336 30 157 1.6 6.4 0.00 0.00 0.00 75 1017.6
20260507134828 30 293 1.6 4.8 0.00 0.00 0.00 75 1017.6
20260507134325 30 311 0.0 4.8 0.00 0.00 0.00 76 1017.7
20260507133846 29 150 1.6 4.8 0.00 0.00 0.00 76 1017.7
20260507133338 29 295 0.0 4.8 0.00 0.00 0.00 77 1017.7
20260507132832 29 297 0.0 4.8 0.00 0.00 0.00 77 1017.7
20260507132343 29 329 0.0 4.8 0.00 0.00 0.00 77 1017.9
20260507131824 29 179 0.0 3.2 0.00 0.00 0.00 77 1017.8
20260507131344 28 266 0.0 0.0 0.00 0.00 0.00 77 1017.7
20260507130854 28 124 0.0 0.0 0.00 0.00 0.00 78 1017.7
20260507130321 28 56 0.0 0.0 0.00 0.00 0.00 78 1017.7
20260507125849 27 132 0.0 0.0 0.00 0.00 0.00 79 1017.7
20260507125346 27 132 0.0 0.0 0.00 0.00 0.00 79 1017.7
20260507124837 27 324 0.0 0.0 0.00 0.00 0.00 79 1017.8
20260507124341 27 323 0.0 0.0 0.00 0.00 0.00 80 1017.7
20260507123849 27 323 0.0 0.0 0.00 0.00 0.00 80 1017.8
20260507123346 26 323 0.0 0.0 0.00 0.00 0.00 81 1017.7
20260507122822 26 323 0.0 0.0 0.00 0.00 0.00 82 1017.8
20260507122322 26 351 0.0 0.0 0.00 0.00 0.00 83 1017.8
20260507121838 25 351 0.0 0.0 0.00 0.00 0.00 83 1017.7
20260507121330 25 351 0.0 0.0 0.00 0.00 0.00 84 1017.8
20260507120839 25 351 0.0 0.0 0.00 0.00 0.00 86 1017.9
20260507120330 24 351 0.0 0.0 0.00 0.00 0.00 86 1017.8
20260507115823 23 351 0.0 0.0 0.00 0.00 0.00 87 1017.7
20260507115331 23 351 0.0 0.0 0.00 0.00 0.00 88 1017.7
20260507114824 23 351 0.0 0.0 0.00 0.00 0.00 89 1017.6
20260507114347 23 351 0.0 0.0 0.00 0.00 0.00 89 1017.5
20260507113840 23 81 0.0 0.0 0.00 0.00 0.00 90 1017.5
20260507113351 23 99 0.0 0.0 0.00 0.00 0.00 91 1017.3
20260507112823 22 99 0.0 0.0 0.00 0.00 0.00 91 1017.2
20260507112335 22 99 0.0 0.0 0.00 0.00 0.00 92 1017.2
20260507111845 21 99 0.0 0.0 0.00 0.00 0.00 91 1017.1
20260507111336 21 99 0.0 0.0 0.00 0.00 0.00 91 1017.0
20260507110830 21 99 0.0 0.0 0.00 0.00 0.00 91 1016.7
20260507110324 21 99 0.0 0.0 0.00 0.00 0.00 91 1016.7
20260507105835 21 99 0.0 0.0 0.00 0.00 0.00 91 1016.4
20260507105408 20 99 0.0 0.0 0.00 0.00 0.00 91 1016.4
20260507104832 21 99 0.0 0.0 0.00 0.00 0.00 91 1016.3
20260507104346 21 99 0.0 0.0 0.00 0.00 0.00 91 1016.3
20260507103856 21 99 0.0 0.0 0.00 0.00 0.00 91 1016.2
20260507103330 21 99 0.0 0.0 0.00 0.00 0.00 91 1016.1
20260507102824 21 99 0.0 0.0 0.00 0.00 0.00 91 1016.2
20260507102346 21 99 0.0 0.0 0.00 0.00 0.00 90 1016.0
20260507101831 21 99 0.0 0.0 0.00 0.00 0.00 90 1016.0
20260507101325 21 99 0.0 0.0 0.00 0.00 0.00 90 1016.0
20260507100835 21 99 0.0 0.0 0.00 0.00 0.00 90 1015.8
20260507100329 21 99 0.0 0.0 0.00 0.00 0.00 90 1015.8
20260507095849 21 99 0.0 0.0 0.00 0.00 0.00 90 1015.6
20260507095331 21 99 0.0 0.0 0.00 0.00 0.00 90 1015.7
20260507094823 21 99 0.0 0.0 0.00 0.00 0.00 90 1015.6
20260507094333 21 99 0.0 0.0 0.00 0.00 0.00 90 1015.8
20260507093825 21 99 0.0 0.0 0.00 0.00 0.00 89 1015.7
20260507093324 21 99 0.0 0.0 0.00 0.00 0.00 89 1015.7
20260507092844 21 99 0.0 0.0 0.00 0.00 0.00 89 1015.8
20260507092348 21 99 0.0 0.0 0.00 0.00 0.00 89 1015.7
20260507091829 21 99 0.0 0.0 0.00 0.00 0.00 89 1015.7
20260507091343 21 99 0.0 0.0 0.00 0.00 0.00 89 1015.7
20260507090910 21 99 0.0 0.0 0.00 0.00 0.00 89 1015.6
20260507090322 21 99 0.0 0.0 0.00 0.00 0.00 88 1015.5
20260507085835 21 99 0.0 0.0 0.00 0.00 0.00 88 1015.6
20260507085330 21 99 0.0 0.0 0.00 0.00 0.00 88 1015.5
20260507084840 21 99 0.0 0.0 0.00 0.00 0.00 88 1015.7
20260507084405 21 99 0.0 0.0 0.00 0.00 0.00 88 1015.5
20260507083833 21 99 0.0 0.0 0.00 0.00 0.00 88 1015.5
20260507083325 21 99 0.0 0.0 0.00 0.00 0.00 89 1015.5
20260507082834 21 99 0.0 0.0 0.00 0.00 0.00 89 1015.5
20260507082329 21 99 0.0 0.0 0.00 0.00 0.00 88 1015.5
20260507081822 21 99 0.0 0.0 0.00 0.00 0.00 88 1015.4
20260507081337 21 99 0.0 0.0 0.00 0.00 0.00 88 1015.5
20260507080831 21 99 0.0 0.0 0.00 0.00 0.00 88 1015.5
20260507080322 21 99 0.0 0.0 0.00 0.00 0.00 87 1015.5
20260507075831 21 99 0.0 0.0 0.00 0.00 0.00 87 1015.6
20260507075322 21 99 0.0 0.0 0.00 0.00 0.00 87 1015.7
20260507074846 21 99 0.0 0.0 0.00 0.00 0.00 87 1015.9
20260507074340 21 99 0.0 0.0 0.00 0.00 0.00 87 1015.7
20260507073832 21 99 0.0 0.0 0.00 0.00 0.00 87 1015.8
20260507073340 21 99 0.0 0.0 0.00 0.00 0.00 87 1015.8
20260507072824 21 99 0.0 0.0 0.00 0.00 0.00 87 1015.8
20260507072345 21 99 0.0 0.0 0.00 0.00 0.00 87 1015.8
20260507071829 21 99 0.0 0.0 0.00 0.00 0.00 87 1015.8
20260507071321 21 99 0.0 0.0 0.00 0.00 0.00 87 1015.7
20260507070856 21 99 0.0 0.0 0.00 0.00 0.00 87 1015.9
20260507070330 22 99 0.0 0.0 0.00 0.00 0.00 87 1015.9
20260507065843 22 99 0.0 0.0 0.00 0.00 0.00 87 1016.0
20260507065408 22 99 0.0 0.0 0.00 0.00 0.00 86 1016.2
20260507064820 22 99 0.0 0.0 0.00 0.00 0.00 86 1016.3
20260507064329 22 99 0.0 0.0 0.00 0.00 0.00 86 1016.2
20260507063820 22 99 0.0 0.0 0.00 0.00 0.00 85 1016.3
20260507063348 22 99 0.0 0.0 0.00 0.00 0.00 85 1016.4
20260507062828 22 99 0.0 0.0 0.00 0.00 0.00 85 1016.5
20260507062342 22 99 0.0 0.0 0.00 0.00 0.00 85 1016.5
20260507061833 22 99 0.0 0.0 0.00 0.00 0.00 85 1016.6
20260507061409 22 99 0.0 0.0 0.00 0.00 0.00 85 1016.5
20260507060832 22 99 0.0 0.0 0.00 0.00 0.00 85 1016.5
20260507060326 22 99 0.0 0.0 0.00 0.00 0.00 85 1016.5
20260507055837 22 99 0.0 0.0 0.00 0.00 0.00 85 1016.5
20260507055334 22 99 0.0 0.0 0.00 0.00 0.00 85 1016.6
20260507054822 22 99 0.0 0.0 0.00 0.00 0.00 84 1016.7
20260507054322 22 99 0.0 0.0 0.00 0.00 0.00 84 1016.7
20260507053845 22 99 0.0 0.0 0.00 0.00 0.00 84 1016.8
20260507053335 22 92 0.0 0.0 0.00 0.00 0.00 84 1016.9
20260507052835 22 92 0.0 0.0 0.00 0.00 0.00 84 1017.0
20260507052324 23 120 0.0 0.0 0.00 0.00 0.00 83 1017.1
20260507051826 23 120 0.0 0.0 0.00 0.00 0.00 83 1017.1
20260507051345 23 120 0.0 0.0 0.00 0.00 0.00 82 1017.1
20260507050835 23 120 0.0 0.0 0.00 0.00 0.00 82 1017.1
20260507050336 23 120 0.0 0.0 0.00 0.00 0.00 83 1017.1
20260507045830 23 120 0.0 0.0 0.00 0.00 0.00 83 1017.2
20260507045350 23 120 0.0 0.0 0.00 0.00 0.00 82 1017.2
20260507044903 23 120 0.0 0.0 0.00 0.00 0.00 83 1017.2
20260507044324 23 120 0.0 0.0 0.00 0.00 0.00 83 1017.1
20260507043835 23 120 0.0 0.0 0.00 0.00 0.00 82 1017.2
20260507043329 23 120 0.0 0.0 0.00 0.00 0.00 81 1017.2
20260507042848 24 120 0.0 0.0 0.00 0.00 0.00 81 1017.1
20260507042342 24 120 0.0 0.0 0.00 0.00 0.00 81 1017.1
20260507041826 24 120 0.0 0.0 0.00 0.00 0.00 81 1017.1
20260507041335 24 120 0.0 0.0 0.00 0.00 0.00 81 1017.2
20260507040828 24 109 0.0 0.0 0.00 0.00 0.00 81 1017.2
20260507040339 24 120 0.0 0.0 0.00 0.00 0.00 81 1017.3
20260507035822 24 113 0.0 0.0 0.00 0.00 0.00 81 1017.2
20260507035340 24 113 0.0 0.0 0.00 0.00 0.00 81 1017.2
20260507034830 24 113 0.0 0.0 0.00 0.00 0.00 81 1017.2
20260507034322 24 122 0.0 0.0 0.00 0.00 0.00 80 1017.2
20260507033836 24 124 0.0 0.0 0.00 0.00 0.00 80 1017.3
20260507033329 24 119 0.0 0.0 0.00 0.00 0.00 80 1017.5
20260507032822 25 119 0.0 0.0 0.00 0.00 0.00 80 1017.4
20260507032332 25 118 0.0 0.0 0.00 0.00 0.00 80 1017.4
20260507031823 25 120 0.0 0.0 0.00 0.00 0.00 80 1017.4
20260507031347 25 120 0.0 0.0 0.00 0.00 0.00 80 1017.5
20260507030820 25 120 0.0 0.0 0.00 0.00 0.00 80 1017.5
20260507030331 25 151 0.0 0.0 0.00 0.00 0.00 80 1017.7
20260507025823 25 148 0.0 0.0 0.00 0.00 0.00 80 1017.6
20260507025330 25 126 0.0 0.0 0.00 0.00 0.00 80 1017.5
20260507024821 25 132 0.0 3.2 0.00 0.00 0.00 79 1017.6
20260507024336 25 123 0.0 3.2 0.00 0.00 0.00 79 1017.6
20260507023849 25 139 1.6 3.2 0.00 0.00 0.00 79 1017.6
20260507023342 25 129 0.0 3.2 0.00 0.00 0.00 79 1017.6
20260507022850 25 120 0.0 4.8 0.00 0.00 0.00 79 1017.5
20260507022322 25 113 1.6 4.8 0.00 0.00 0.00 79 1017.4
20260507021836 25 122 3.2 6.4 0.00 0.00 0.00 79 1017.3
20260507021347 25 122 3.2 6.4 0.00 0.00 0.00 78 1017.4
20260507020857 25 126 3.2 4.8 0.00 0.00 0.00 78 1017.3
20260507020348 25 127 1.6 4.8 0.00 0.00 0.00 78 1017.3
20260507015848 25 120 1.6 4.8 0.00 0.00 0.00 78 1017.2
20260507015330 25 122 1.6 4.8 0.00 0.00 0.00 78 1017.3
20260507014825 25 115 0.0 4.8 0.00 0.00 0.00 78 1017.3
20260507014335 25 127 1.6 4.8 0.00 0.00 0.00 78 1017.3
20260507013829 25 74 1.6 4.8 0.00 0.00 0.00 78 1017.4
20260507013322 25 88 0.0 4.8 0.00 0.00 0.00 78 1017.3
20260507012837 25 120 1.6 4.8 0.00 0.00 0.00 77 1017.3
20260507012331 26 120 0.0 3.2 0.00 0.00 0.00 77 1017.4
20260507011836 26 105 1.6 4.8 0.00 0.00 0.00 77 1017.4
20260507011327 26 99 1.6 4.8 0.00 0.00 0.00 77 1017.4
20260507010346 26 122 0.0 4.8 0.00 0.00 0.00 77 1017.3
20260507005839 26 86 1.6 4.8 0.00 0.00 0.00 76 1017.3
20260507005332 26 136 1.6 4.8 0.00 0.00 0.00 77 1017.2
20260507004838 26 123 1.6 6.4 0.00 0.00 0.00 76 1017.2